Location: Bacharowice
(49.9333°N, 19.5833°E)
Time: 10:59:01
(UTC+00:00)

Cosmos 1805 Rocket - Pass Details

Date: 11 May 2021
Orbit: 607 x 629 km, 82.5° (Epoch: 22 June)

Event Time Altitude Azimuth Distance (km) Brightness Sun altitude
Rises 18:48:46 0° 348° (NNW) 2,880 7.8 -5.3°
Reaches altitude 10° 18:51:00 10° 346° (NNW) 1,972 7.0 -5.6°
Maximum altitude 18:55:20 70° 263° (W) 653 3.9 -6.2°
Drops below altitude 10° 18:59:39 10° 180° (S) 1,965 5.8 -6.7°
Sets 19:01:53 0° 178° (S) 2,868 6.6 -7.0°
